Weather in Polevaya

Russia / Mari El Republic     56°01′06″N   48°20′26″E
temp.,
°C
wind,
m/s
gust,
m/s
humid.,
%
clouds,
%
prec.,
mm/h
press.,
hPa
HPBL,
m
27 february, sat
sat2700:00−11se71394100 4.8 998556
03:00−11ese5995100 5.8 997294
06:00−10e4695100 0.9 996227
09:00−10ene4695100 1.8 997271
12:00−8ne4693100 0.5 997467
15:00−9nne5893100 1.3 1000600
18:00−11n51093100 0.4 1002515
21:00−13n5109299 0.5 1005356
28 february, sun
sun2800:00−17nnw499690 0.0 1006221
03:00−18nnw4109676 0.0 1008225
06:00−20nnw499735 0.0 1009189
09:00−18nnw479427 0.0 1010276
12:00−14nnw479178 0.0 1011440
15:00−13nnw588989 0.0 1013579
18:00−18n349581 0.0 101575
21:00−21n339740 0.0 101733
1 march, mon
mon100:00−22nnw23960 0.0 101924
03:00−23nnw23970 0.0 102020
06:00−24nnw23980 0.0 102220
09:00−19nnw22940 0.0 1023133
12:00−14w228763 0.0 1023341
15:00−12w338880 0.0 1023377
18:00−18sw339342 0.0 102133
21:00−18ssw339622 0.0 102040
2 march, tue
tue200:00−18ssw369744 0.0 1017103
03:00−14s499672 0.0 1013254
06:00−10ssw51195100 0.9 1008443
09:00−6ssw61095100 1.9 1004491
12:00−2ssw5997100 1.6 1002543
15:000sw48100100 3.0 999443
18:000w3698100 0.9 999272
21:000nnw4998100 1.9 999579
3 march, wed
wed300:00−2nnw6119299 0.4 1000666
03:00−6nw499595 0.4 1001237
06:00−10nnw369655 0.0 1002119
09:00−5nnw489374 0.1 1004369
12:00−2nnw589178 0.1 1005736
15:00−2nnw699089 0.4 1007878
18:00−6nnw51190100 0.3 1008541
21:00−9nw489376 0.3 1010146